Location: ??????????
(41.2581°N, 22.8006°E)
Time: 07:05:28
(UTC+00:00)

GEOS 3 Rocket - Pass Details

Date: 13 December 2025
Orbit: 769 x 844 km, 115.0° (Epoch: 13 January)

Event Time Altitude Azimuth Distance (km) Brightness Sun altitude
Exits shadow 15:38:12 - 36° (NE) 2,954 6.0 -7.2°
Reaches altitude 10° 15:39:25 10° 37° (NE) 2,468 5.6 -7.4°
Maximum altitude 15:44:50 83° 126° (SE) 854 3.7 -8.3°
Drops below altitude 10° 15:50:11 10° 214° (SW) 2,450 7.1 -9.2°
Sets 15:52:30 0° 215° (SW) 3,376 7.9 -9.6°
